Weather History for KPEA - January, 2013

Change the Weather History Date:

Tuesday, January 29, 2013

  Actual Average (KOXV) Record (KOXV)
Temperature  
Mean Temperature 47 °F -  
Max Temperature 61 °F 32 °F 59 °F (2013)
Min Temperature 33 °F 13 °F -24 °F (1966)
Degree Days  
Heating Degree Days 18    
Moisture  
Dew Point 41 °F    
Average Humidity 93    
Maximum Humidity 98    
Minimum Humidity 76    
Precipitation  
Precipitation 0.01 in - - ()
Sea Level Pressure  
Sea Level Pressure 29.58 in    
Wind  
Wind Speed 11 mph (NW)    
Max Wind Speed 16 mph    
Max Gust Speed 23 mph    
Visibility 6 miles    
Events Rain , Snow    
Averages and records for this station are not official NWS values.
T = Trace of Precipitation, MM = Missing Value Source: NWS Daily Summary

Daily Weather History Graph

Daily Weather History Graph

Search for Another Location

Airport or City:

Trip Planner

Search our weather history database for the weather conditions in past years. The results will help you decide how hot, cold, wet, or windy it might be!

Date:

Astronomy

Jan. 29, 2013 Rise Set
Actual Time 7:25 AM CST 5:24 PM CST
Civil Twilight 6:56 AM CST 5:54 PM CST
Nautical Twilight 6:23 AM CST 6:27 PM CST
Astronomical Twilight 5:50 AM CST 6:59 PM CST
Moon 8:24 PM CST (1/29) 8:20 AM CST (1/29)
Length of Visible Light 10h 57m
Length of Day
9h 58m
Waning Gibbous, 93% of the Moon is Illuminated
Jan 29
Waning Gibbous
Feb 3
Last Quarter
Feb 10
New
Feb 17
First Quarter
Feb 25
Full

Hourly Weather History & Observations

Time (CST) Temp. Windchill Dew Point Humidity Pressure Visibility Wind Dir Wind Speed Gust Speed Precip Events Conditions
12:15 AM 54.5 °F - 54.0 °F 98% 29.61 in 7.0 mi South 11.5 mph - N/A   Clear
12:35 AM 56.3 °F - 55.8 °F 98% 29.61 in 10.0 mi South 11.5 mph - N/A   Clear
12:55 AM 57.9 °F - 57.4 °F 98% 29.59 in 10.0 mi South 12.7 mph 18.4 mph N/A   Clear
1:15 AM 58.6 °F - 58.1 °F 98% 29.58 in 10.0 mi South 12.7 mph - N/A   Clear
1:35 AM 59.0 °F - 57.9 °F 96% 29.57 in 10.0 mi South 13.8 mph - N/A   Clear
1:55 AM 59.7 °F - 57.6 °F 93% 29.56 in 10.0 mi South 13.8 mph - N/A   Clear
2:15 AM 60.3 °F - 57.7 °F 91% 29.56 in 10.0 mi South 15.0 mph - N/A   Clear
2:35 AM 61.2 °F - 58.1 °F 90% 29.55 in 10.0 mi South 16.1 mph 23.0 mph N/A   Scattered Clouds
2:55 AM 61.3 °F - 58.1 °F 89% 29.54 in 10.0 mi South 13.8 mph 21.9 mph N/A   Scattered Clouds
3:15 AM 61.2 °F - 58.1 °F 90% 29.55 in 10.0 mi South 12.7 mph - N/A   Clear
3:35 AM 61.2 °F - 58.1 °F 90% 29.54 in 10.0 mi South 13.8 mph 17.3 mph N/A   Clear
3:55 AM 61.5 °F - 58.5 °F 90% 29.54 in 10.0 mi South 13.8 mph - N/A   Clear
4:15 AM 61.9 °F - 56.8 °F 84% 29.54 in 10.0 mi SSW 15.0 mph 20.7 mph N/A   Scattered Clouds
4:35 AM 61.0 °F - 54.0 °F 78% 29.55 in 10.0 mi SSW 16.1 mph 20.7 mph N/A   Clear
4:55 AM 59.5 °F - 51.8 °F 76% 29.54 in 10.0 mi South 11.5 mph 16.1 mph N/A   Clear
5:15 AM 58.8 °F - 51.6 °F 77% 29.54 in 10.0 mi SSW 9.2 mph - N/A   Scattered Clouds
5:35 AM 57.6 °F - 52.7 °F 84% 29.56 in 10.0 mi West 10.4 mph 17.3 mph 0.01 in Rain Light Rain
5:55 AM 53.8 °F - 49.3 °F 85% 29.58 in 7.0 mi NW 12.7 mph 18.4 mph 0.01 in   Overcast
6:15 AM 48.4 °F - 46.8 °F 94% 29.58 in 4.0 mi NW 11.5 mph - N/A   Overcast
6:35 AM 46.6 °F - 45.3 °F 95% 29.59 in 4.0 mi WNW 10.4 mph - N/A   Overcast
6:55 AM 45.1 °F 39.1 °F 43.5 °F 94% 29.59 in 5.0 mi WNW 12.7 mph - N/A   Overcast
7:15 AM 43.9 °F 38.3 °F 42.1 °F 93% 29.60 in 5.0 mi WNW 10.4 mph - N/A   Overcast
7:35 AM 43.0 °F 37.7 °F 41.2 °F 93% 29.59 in 5.0 mi WNW 9.2 mph - N/A   Overcast
7:55 AM 42.3 °F 36.3 °F 40.3 °F 93% 29.59 in 5.0 mi NW 10.4 mph - N/A   Overcast
8:15 AM 41.9 °F 36.9 °F 40.1 °F 93% 29.61 in 5.0 mi WNW 8.1 mph - N/A   Overcast
8:35 AM 41.4 °F 35.2 °F 39.6 °F 93% 29.62 in 4.0 mi WNW 10.4 mph - N/A   Overcast
8:55 AM 40.1 °F 33.6 °F 38.3 °F 93% 29.63 in 5.0 mi WNW 10.4 mph - N/A   Overcast
9:15 AM 40.1 °F 35.3 °F 38.1 °F 93% 29.63 in 5.0 mi WNW 6.9 mph - N/A   Overcast
9:35 AM 39.9 °F 35.8 °F 37.8 °F 92% 29.64 in 5.0 mi WNW 5.8 mph - N/A   Overcast
9:55 AM 40.1 °F 36.1 °F 37.8 °F 91% 29.64 in 5.0 mi WNW 5.8 mph - N/A   Overcast
10:15 AM 39.7 °F 33.2 °F 37.8 °F 93% 29.64 in 5.0 mi NW 10.4 mph - N/A   Light Drizzle
10:35 AM 39.7 °F 33.2 °F 37.8 °F 93% 29.64 in 7.0 mi NW 10.4 mph - N/A   Mostly Cloudy
10:55 AM 39.4 °F 32.3 °F 37.4 °F 93% 29.66 in 5.0 mi WNW 11.5 mph 17.3 mph N/A   Drizzle
11:15 AM 38.5 °F 29.9 °F 36.9 °F 94% 29.65 in 5.0 mi NW 15.0 mph 19.6 mph N/A   Light Drizzle
11:35 AM 38.3 °F 31.4 °F 36.5 °F 93% 29.66 in 5.0 mi WNW 10.4 mph 18.4 mph N/A Rain Light Rain
11:55 AM 37.4 °F 32.1 °F 35.6 °F 93% 29.65 in 5.0 mi NW 6.9 mph - N/A Rain Rain
12:15 PM 37.0 °F 32.4 °F 35.6 °F 95% 29.61 in 4.0 mi NNW 5.8 mph - N/A Rain Light Rain
12:35 PM 37.4 °F 31.4 °F 36.0 °F 95% 29.61 in 4.0 mi NNW 8.1 mph - N/A   Overcast
12:55 PM 37.4 °F 32.1 °F 36.3 °F 96% 29.60 in 4.0 mi NNW 6.9 mph - N/A   Overcast
1:15 PM 37.4 °F 30.3 °F 36.1 °F 95% 29.60 in 3.0 mi North 10.4 mph - N/A   Overcast
1:35 PM 36.9 °F 29.6 °F 35.4 °F 95% 29.58 in 7.0 mi North 10.4 mph - N/A   Overcast
1:55 PM 36.7 °F 28.9 °F 34.9 °F 93% 29.60 in 7.0 mi NNW 11.5 mph - N/A   Overcast
2:15 PM 36.5 °F 30.3 °F 34.7 °F 93% 29.57 in 5.0 mi North 8.1 mph - N/A   Overcast
2:35 PM 36.5 °F 28.2 °F 34.7 °F 93% 29.56 in 7.0 mi NNW 12.7 mph - N/A   Overcast
2:55 PM 36.1 °F 27.7 °F 34.3 °F 93% 29.59 in 7.0 mi NNW 12.7 mph - N/A   Overcast
3:15 PM 35.8 °F 29.4 °F 34.0 °F 93% 29.58 in 10.0 mi North 8.1 mph - N/A   Overcast
3:35 PM 35.8 °F 29.4 °F 34.0 °F 93% 29.55 in 7.0 mi North 8.1 mph 16.1 mph N/A   Overcast
3:55 PM 35.6 °F 27.1 °F 34.0 °F 94% 29.54 in 7.0 mi North 12.7 mph 18.4 mph N/A   Overcast
4:15 PM 35.6 °F 28.0 °F 33.8 °F 93% 29.57 in 7.0 mi NNW 10.4 mph - N/A   Overcast
4:35 PM 35.6 °F 28.0 °F 34.0 °F 94% 29.60 in 7.0 mi NNW 10.4 mph - N/A   Overcast
4:55 PM 35.6 °F 29.2 °F 33.8 °F 93% 29.59 in 7.0 mi North 8.1 mph - N/A Rain Light Rain
5:15 PM 35.6 °F 29.2 °F 33.8 °F 93% 29.58 in 7.0 mi NNW 8.1 mph - N/A   Drizzle
5:35 PM 35.2 °F 28.1 °F 33.8 °F 94% 29.56 in 10.0 mi North 9.2 mph - N/A   Overcast
5:55 PM 34.9 °F 27.1 °F 33.6 °F 95% 29.56 in 7.0 mi North 10.4 mph 16.1 mph N/A   Overcast
6:15 PM 34.7 °F 26.9 °F 33.3 °F 94% 29.58 in 5.0 mi North 10.4 mph - N/A   Overcast
6:35 PM 34.2 °F 28.2 °F 33.1 °F 96% 29.57 in 7.0 mi North 6.9 mph - N/A   Overcast
6:55 PM 34.2 °F 26.8 °F 32.9 °F 95% 29.60 in 7.0 mi NNW 9.2 mph - N/A   Overcast
7:15 PM 34.0 °F 25.5 °F 32.9 °F 96% 29.61 in 7.0 mi NW 11.5 mph - N/A   Overcast
7:35 PM 34.0 °F 26.6 °F 32.7 °F 95% 29.58 in 5.0 mi North 9.2 mph - N/A Rain Light Rain
7:55 PM 33.8 °F 26.4 °F 32.5 °F 95% 29.55 in 4.0 mi North 9.2 mph - N/A Rain Rain
8:15 PM 34.0 °F 26.6 °F 32.9 °F 96% 29.58 in 5.0 mi NNW 9.2 mph - N/A   Light Drizzle
8:35 PM 34.2 °F 26.8 °F 32.9 °F 95% 29.58 in 5.0 mi NNW 9.2 mph - N/A   Overcast
8:55 PM 34.2 °F 26.2 °F 32.7 °F 94% 29.59 in 5.0 mi NNW 10.4 mph - N/A Rain Light Rain
9:15 PM 34.2 °F 26.2 °F 32.4 °F 93% 29.60 in 4.0 mi NNW 10.4 mph - N/A Rain Light Rain
9:35 PM 33.8 °F 24.8 °F 32.2 °F 94% 29.59 in 4.0 mi NNW 12.7 mph - N/A Rain Light Rain
9:55 PM 33.8 °F 25.8 °F 32.0 °F 93% 29.61 in 4.0 mi NNW 10.4 mph - N/A Rain Light Rain
10:15 PM 33.4 °F 26.6 °F 32.0 °F 94% 29.58 in 2.0 mi North 8.1 mph - N/A Snow Light Snow
10:35 PM 33.1 °F 25.5 °F 32.0 °F 96% 29.56 in 2.5 mi North 9.2 mph - N/A Snow Light Snow
10:55 PM 33.1 °F 24.9 °F 32.2 °F 96% 29.54 in 4.0 mi North 10.4 mph - N/A   Overcast
11:15 PM 33.1 °F 25.5 °F 32.2 °F 96% 29.53 in 5.0 mi North 9.2 mph 17.3 mph N/A   Overcast
11:35 PM 33.3 °F 25.1 °F 32.2 °F 96% 29.54 in 7.0 mi North 10.4 mph 17.3 mph N/A   Overcast
11:55 PM 33.4 °F 25.4 °F 32.0 °F 94% 29.54 in 7.0 mi North 10.4 mph - N/A   Overcast